Location: M?digepalle
(16.1753°N, 80.3496°E)
Time: 08:55:19
(UTC+00:00)

Meteor 2-10 Rocket - Pass Details

Date: 29 October 2020
Orbit: 733 x 885 km, 81.2° (Epoch: 27 November)

Event Time Altitude Azimuth Distance (km) Brightness Sun altitude
Rises 12:35:47 0° 182° (S) 3,386 7.0 -6.9°
Reaches altitude 10° 12:38:14 10° 181° (S) 2,431 6.3 -7.5°
Maximum altitude 12:43:43 78° 95° (E) 826 3.6 -8.8°
Drops below altitude 10° 12:48:59 10° 10° (N) 2,332 5.8 -10.0°
Sets 12:51:18 0° 9° (N) 3,239 6.5 -10.6°
